Regional Weather Roundup
Issued by NWS

Home | Current Version | Previous Version | Graphics & Text | Print | Product List | Glossary On
Versions: 1 2 3 4 5 6 7 8 9 10 11 12 13 14 15 16 17 18 19 20 21 22 23 24 25 26 27 28 29 30 31 32 33 34 35 36 37 38 39 40 41 42 43 44 45 46 47 48 49 50
000
ASUS43 KFSD 261102
RWRSD

WEATHER ROUNDUP FOR SOUTH DAKOTA
NATIONAL WEATHER SERVICE SIOUX FALLS SD
600 AM CDT THU APR 26 2018

NOTE: "FAIR" INDICATES FEW OR NO CLOUDS BELOW 12,000 FEET WITH NO
SIGNIFICANT WEATHER AND/OR OBSTRUCTIONS TO VISIBILITY.


SDZ001>005-009-010-012>017-261200-
NORTHWEST AND NORTH CENTRAL SOUTH DAKOTA

CITY           SKY/WX    TMP DP  RH WIND       PRES   REMARKS
BUFFALO          N/A     36  29  75 NW9       30.09R
FAITH            N/A     40  34  79 NW13      30.09R
MOBRIDGE       CLEAR     41  31  67 N9        30.01R
$$

SDZ012>016-024>037-041>051-057-063-072>074-261200-
SOUTHWEST AND SOUTH CENTRAL SOUTH DAKOTA

CITY           SKY/WX    TMP DP  RH WIND       PRES   REMARKS
RAPID CTY ARPT CLEAR     44  32  62 NW21      30.14R
PIERRE         CLEAR     44  34  67 N21       29.98R
CUSTER         PTCLDY    37  25  61 N6        30.15R
ELLSWORTH AFB  PTCLDY    44  33  66 NW17      30.13R
PHILIP         MOCLDY    44  36  73 N18       30.06R
PINE RIDGE     PTCLDY    47  33  58 N13       30.09R
SPEARFISH      CLOUDY    43  32  65 W8        30.18R
WINNER         FAIR      50  36  58 NW16      29.94R
$$

SDZ004>011-016>023-039-040-261200-
NORTHEAST SOUTH DAKOTA

CITY           SKY/WX    TMP DP  RH WIND       PRES   REMARKS
ABERDEEN       CLEAR     43  33  68 N18       29.93R
WATERTOWN      CLOUDY    40  33  76 W5        29.85R
BROOKINGS      CLOUDY    43  33  68 SW6       29.84R
SISSETON         N/A     44  34  67 NW18      29.86R
$$

SDZ017-020-022-023-036>040-048>070-261200-
SOUTHEAST SOUTH DAKOTA

CITY           SKY/WX    TMP DP  RH WIND       PRES   REMARKS
SIOUX FALLS    CLOUDY    43  31  62 S13       29.85F
HURON          CLOUDY    45  36  70 NW13      29.84R
CHAMBERLAIN    CLOUDY    51  38  60 N20G31    29.90R
MITCHELL       CLOUDY    45  35  68 SW5       29.86R
YANKTON        CLOUDY    46  34  62 SW9       29.88F
$$

ABBREVIATIONS USED IN REMARKS
   TC - TEMPERATURE IN CELSIUS
  WCI - WIND CHILL INDEX
   HX - HEAT INDEX
  VSB - VISIBILITY




USA.gov is the U.S. government's official web portal to all federal, state and local government web resources and services.